Flag for Kosovo Weather past 2 weeks in Uroševac, Kosovo

Now
68 °F

Clear.


Feels Like: 68 °F
Forecast: 60 / 82 °F
Wind: 2 mph from East

Location: Skopje-Petrovec

Current Time: Jul 25, 2014 at 1:17:26 AM

Latest Report: Jul 25, 2014 at 12:00 AM


Visibility: 10 mi

Pressure: 29.92 "Hg

Humidity: 78%

Dew point: 61 °F

Location of UroševacLocation

Historic Weather in Uroševac — Graph

°F

Uroševac temperature yesterday

Maximum temperature yesterday: 84 °F (at 1:30 PM)
Minimum temperature yesterday: 61 °F (at 3:30 AM)
Average temperature yesterday: 73 °F

Past Weeks' High & Low Weather Summary

 TemperatureHumidityPressure
High95 °F (Jul 21, 3:30 PM)100% (Jul 14, 6:00 AM)30.04 "Hg (Jul 14, 6:00 AM)
Low54 °F (Jul 10, 5:30 AM)20% (Jul 21, 3:30 PM)29.62 "Hg (Jul 10, 5:30 PM)
Average72 °F65%29.88 "Hg
* Reported Midnight between Jul 9 and Jul 10 — Midnight between Jul 24 and Jul 25, Uroševac, Weather by CustomWeather, © 2014

Note: Actual official high and low records may vary slightly from our data, if they occured in-between our weather recording intervals... More about our weather records

Advertising

Uroševac weather history for previous 24 hours

 ConditionsComfort  
Time TempWeatherWind HumidityBarometerVisibility
12:00 AM
Jul 25
68 °FClear.2 mph78%29.92 "Hg10 mi
11:30 PM
Jul 24
70 °FClear.2 mph69%29.92 "Hg10 mi
11:00 PM70 °FClear.1 mph73%29.89 "Hg10 mi
10:30 PM72 °FClear.7 mph69%29.89 "Hg10 mi
10:00 PM72 °FClear.7 mph69%29.89 "Hg10 mi
9:30 PM73 °FClear.7 mph65%29.89 "Hg10 mi
9:00 PM73 °FClear.8 mph65%29.86 "Hg10 mi
8:30 PM75 °FSunny.8 mph61%29.86 "Hg10 mi
8:00 PM77 °FPassing clouds.7 mph57%29.83 "HgN/A
7:30 PM79 °FPassing clouds.8 mph51%29.83 "HgN/A
7:00 PM81 °FPassing clouds.10 mph48%29.83 "HgN/A
6:30 PM81 °FPassing clouds.12 mph48%29.83 "HgN/A
6:00 PM82 °FScattered clouds.12 mph45%29.83 "HgN/A
5:30 PM82 °FScattered clouds.10 mph45%29.83 "HgN/A
5:00 PM84 °FScattered clouds.10 mph43%29.83 "HgN/A
4:30 PM84 °FScattered clouds.13 mph43%29.83 "HgN/A
4:00 PM82 °FScattered clouds.10 mph45%29.83 "HgN/A
3:30 PM84 °FScattered clouds.10 mph43%29.83 "HgN/A
3:00 PM82 °FScattered clouds.9 mph42%29.83 "HgN/A
2:00 PM82 °FPartly sunny.6 mph42%29.83 "HgN/A
1:30 PM84 °FScattered clouds.No wind37%29.83 "HgN/A
1:00 PM82 °FScattered clouds.3 mph42%29.83 "HgN/A
12:30 PM81 °FScattered clouds.5 mph48%29.86 "HgN/A
12:00 PM81 °FScattered clouds.No wind48%29.86 "HgN/A
11:30 AM79 °FScattered clouds.No wind51%29.86 "HgN/A
11:00 AM77 °FPartly sunny.No wind57%29.86 "HgN/A
10:30 AM77 °FPartly sunny.No wind57%29.86 "HgN/A
10:00 AM77 °FSunny.No wind54%29.86 "Hg10 mi
9:30 AM75 °FSunny.No wind61%29.86 "Hg10 mi
9:00 AM73 °FSunny.No wind65%29.86 "Hg10 mi
8:30 AM72 °FSunny.3 mph69%29.86 "Hg10 mi
8:00 AM70 °FSunny.No wind73%29.86 "Hg10 mi
7:30 AM68 °FSunny.No wind78%29.86 "Hg10 mi
7:00 AM66 °FSunny.No wind83%29.83 "Hg10 mi
6:30 AM61 °FSunny.No wind94%29.83 "Hg10 mi
6:00 AM61 °FClear.3 mph88%29.83 "Hg10 mi
5:30 AM61 °FClear.No wind94%29.83 "Hg10 mi
5:00 AM61 °FClear.3 mph94%29.83 "Hg10 mi
4:30 AM61 °FPassing clouds.2 mph94%29.83 "HgN/A
4:00 AM61 °FPassing clouds.2 mph94%29.83 "HgN/A
3:30 AM61 °FPassing clouds.2 mph94%29.83 "HgN/A
3:00 AM63 °FPassing clouds.2 mph88%29.83 "HgN/A
2:30 AM63 °FPassing clouds.2 mph88%29.80 "HgN/A
2:00 AM63 °FClear.2 mph88%29.83 "Hg10 mi
1:30 AM66 °FClear.2 mph78%29.83 "Hg10 mi
1:00 AM64 °FClear.5 mph88%29.83 "Hg10 mi
Weather by CustomWeather, © 2014

See weather overviewHow to use our weather pages